����,���ϕ���(m/s),���ϕ���,�ő�u�ԕ���(m/s),�ő啗��������,�C��(��),���x(%),10���Ԉړ��ώZ�J��(mm),1���Ԉړ��ώZ�J��(mm),���J��(mm),�݌v�J��(mm)
2023-09-11T00:00:00+09:00,0.6,��쓌,1.2,��쓌,22.5,98.2,0,0,7,7
2023-09-11T00:01:00+09:00,0.6,�쓌,1.2,��쓌,22.6,98.3,0,0,0,7
2023-09-11T00:02:00+09:00,0.6,�쓌,1.2,��쓌,22.7,98.3,0,0,0,7
2023-09-11T00:03:00+09:00,0.5,�쓌,1,�쓌,22.7,98.3,0,0,0,7
2023-09-11T00:04:00+09:00,0.4,�쓌,1,�쓌,22.7,98.2,0,0,0,7
2023-09-11T00:05:00+09:00,0.4,���쓌,0.9,��,22.8,98.3,0,0,0,7
2023-09-11T00:06:00+09:00,0.3,���쓌,0.7,�k��,22.6,98.2,0,0,0,7
2023-09-11T00:07:00+09:00,0.3,���쓌,0.7,�k��,22.5,98.1,0,0,0,7
2023-09-11T00:08:00+09:00,0.3,���쓌,0.7,�k��,22.5,98,0,0,0,7
2023-09-11T00:09:00+09:00,0.3,�쓌,0.7,�k��,22.5,98,0,0,0,7
2023-09-11T00:10:00+09:00,0.3,��,0.7,�k��,22.5,98,0,0,0,7
2023-09-11T00:11:00+09:00,0.3,��,0.9,��,22.5,98,0,0,0,7
2023-09-11T00:12:00+09:00,0.3,���쐼,1.1,���쐼,22.5,98,0,0,0,7
2023-09-11T00:13:00+09:00,0.4,���쐼,1.1,���쐼,22.5,98,0,0,0,7
2023-09-11T00:14:00+09:00,0.4,��,1.1,���쐼,22.4,98,0,0,0,7
2023-09-11T00:15:00+09:00,0.4,��,1.1,���쐼,22.4,98,0,0,0,7
2023-09-11T00:16:00+09:00,0.3,��,1.1,���쐼,22.5,98,0,0,0,7
2023-09-11T00:17:00+09:00,0.3,��,1.1,���쐼,22.5,98.1,0,0,0,7
2023-09-11T00:18:00+09:00,0.3,���k��,1.1,���쐼,22.4,98,0,0,0,7
2023-09-11T00:19:00+09:00,0.3,���k��,1.1,���쐼,22.4,98,0,0,0,7
2023-09-11T00:20:00+09:00,0.3,���k��,1.1,���쐼,22.5,98.1,0,0,0,7
2023-09-11T00:21:00+09:00,0.2,�É�,1.1,���쐼,22.5,98.1,0,0,0,7
2023-09-11T00:22:00+09:00,0.2,�É�,0.7,���쐼,22.5,98.1,0,0,0,7
2023-09-11T00:23:00+09:00,0.1,�É�,0.4,��,22.4,98.1,0,0,0,7
2023-09-11T00:24:00+09:00,0.1,�É�,0.3,�쐼,22.6,98.1,0,0,0,7
2023-09-11T00:25:00+09:00,0.1,�É�,0.4,�k��,22.5,98.2,0,0,0,7
2023-09-11T00:26:00+09:00,0.1,�É�,0.5,���k��,22.6,98.2,0,0,0,7
2023-09-11T00:27:00+09:00,0.1,�É�,0.5,���k��,22.5,98.2,0,0,0,7
2023-09-11T00:28:00+09:00,0.1,�É�,0.6,��쐼,22.5,98.1,0,0,0,7
2023-09-11T00:29:00+09:00,0.2,�É�,0.6,��쐼,22.4,98.1,0,0,0,7
2023-09-11T00:30:00+09:00,0.2,�É�,0.6,��쐼,22.4,98.1,0,0,0,7
2023-09-11T00:31:00+09:00,0.2,�É�,0.6,��쐼,22.4,98.1,0,0,0,7
2023-09-11T00:32:00+09:00,0.2,�É�,0.6,��쐼,22.4,98.1,0,0,0,7
2023-09-11T00:33:00+09:00,0.2,�É�,0.6,��쐼,22.4,98.1,0,0,0,7
2023-09-11T00:34:00+09:00,0.2,�É�,0.6,��쐼,22.4,98.1,0,0,0,7
2023-09-11T00:35:00+09:00,0.2,�É�,0.6,��쐼,22.4,98.1,0,0,0,7
2023-09-11T00:36:00+09:00,0.2,�É�,0.7,��쓌,22.4,98.2,0,0,0,7
2023-09-11T00:37:00+09:00,0.3,��쐼,1.1,��쓌,22.4,98.2,0,0,0,7
2023-09-11T00:38:00+09:00,0.4,��쐼,1.1,��쓌,22.4,98.2,0,0,0,7
2023-09-11T00:39:00+09:00,0.4,��쐼,1.1,��쓌,22.4,98.2,0,0,0,7
2023-09-11T00:40:00+09:00,0.5,��쐼,1.1,��쓌,22.4,98.2,0,0,0,7
2023-09-11T00:41:00+09:00,0.5,��쐼,1.1,��쓌,22.4,98.2,0,0,0,7
2023-09-11T00:42:00+09:00,0.5,��쐼,1.1,��쓌,22.4,98.2,0,0,0,7
2023-09-11T00:43:00+09:00,0.5,�쐼,1.1,��쓌,22.4,98.2,0,0,0,7
2023-09-11T00:44:00+09:00,0.6,�쐼,1.1,��쓌,22.4,98.3,0,0,0,7
2023-09-11T00:45:00+09:00,0.6,�쐼,1.1,��쓌,22.4,98.3,0,0,0,7
2023-09-11T00:46:00+09:00,0.6,�쐼,1.1,��쓌,22.4,98.3,0,0,0,7
2023-09-11T00:47:00+09:00,0.5,�쐼,1.1,��,22.5,98.3,0,0,0,7
2023-09-11T00:48:00+09:00,0.4,�쐼,1.1,��,22.4,98.3,0,0,0,7
2023-09-11T00:49:00+09:00,0.3,���쐼,1,��,22.4,98.3,0,0,0,7
2023-09-11T00:50:00+09:00,0.3,���쐼,1,��,22.4,98.3,0,0,0,7
2023-09-11T00:51:00+09:00,0.4,���쐼,1.4,��,22.4,98.3,0,0,0,7
2023-09-11T00:52:00+09:00,0.5,���쐼,1.9,���k��,22.4,98.3,0,0,0,7
2023-09-11T00:53:00+09:00,0.5,���쐼,1.9,���k��,22.4,98.3,0,0,0,7
2023-09-11T00:54:00+09:00,0.6,���쐼,1.9,���k��,22.5,98.3,0,0,0,7
2023-09-11T00:55:00+09:00,0.7,��,2.1,�k�k��,22.5,98.3,0,0,0,7
2023-09-11T00:56:00+09:00,0.8,��,2.1,�k�k��,22.5,98.3,0,0,0,7
2023-09-11T00:57:00+09:00,0.9,���k��,2.1,�k�k��,22.5,98.3,0,0,0,7
2023-09-11T00:58:00+09:00,1,���k��,2.1,�k�k��,22.5,98.3,0,0,0,7
2023-09-11T00:59:00+09:00,1.1,�k��,2.1,�k�k��,22.5,98.3,0,0,0,7
2023-09-11T01:00:00+09:00,1.1,�k��,2.1,�k�k��,22.5,98.3,0,0,0,7
2023-09-11T01:01:00+09:00,1.1,�k�k��,2.1,�k�k��,22.5,98.3,0,0,0,7
2023-09-11T01:02:00+09:00,1.1,�k�k��,2.1,�k�k��,22.4,98.2,0,0,0,7
2023-09-11T01:03:00+09:00,1,�k�k��,2.1,�k�k��,22.4,98.2,0,0,0,7
2023-09-11T01:04:00+09:00,1,�k��,2.1,�k�k��,22.4,98.2,0,0,0,7
2023-09-11T01:05:00+09:00,0.9,�k��,2.1,�k�k��,22.4,98.2,0,0,0,7
2023-09-11T01:06:00+09:00,0.8,���k��,1.8,�k�k��,22.4,98.2,0,0,0,7
2023-09-11T01:07:00+09:00,0.7,���k��,1.6,�k,22.4,98.2,0,0,0,7
2023-09-11T01:08:00+09:00,0.7,��,1.6,�k,22.4,98.2,0,0,0,7
2023-09-11T01:09:00+09:00,0.7,���쐼,1.6,�쓌,22.4,98.2,0,0,0,7
2023-09-11T01:10:00+09:00,0.7,�쐼,1.6,�쓌,22.4,98.2,0,0,0,7
2023-09-11T01:11:00+09:00,0.7,��쐼,1.6,�쓌,22.4,98.2,0,0,0,7
2023-09-11T01:12:00+09:00,0.6,��쐼,1.6,�쓌,22.4,98.2,0,0,0,7
2023-09-11T01:13:00+09:00,0.6,��쐼,1.6,�쓌,22.4,98.2,0,0,0,7
2023-09-11T01:14:00+09:00,0.7,��,1.6,�쓌,22.3,98.2,0,0,0,7
2023-09-11T01:15:00+09:00,0.7,��,1.6,�쓌,22.3,98.2,0,0,0,7
2023-09-11T01:16:00+09:00,0.8,��쓌,1.8,�쓌,22.3,98.2,0,0,0,7
2023-09-11T01:17:00+09:00,0.8,��,1.8,�쓌,22.3,98.2,0,0,0,7
2023-09-11T01:18:00+09:00,0.8,��,1.8,�쓌,22.3,98.2,0,0,0,7
2023-09-11T01:19:00+09:00,0.8,��,1.8,�쓌,22.3,98.3,0,0,0,7
2023-09-11T01:20:00+09:00,0.7,��쐼,1.8,�쓌,22.3,98.3,0,0,0,7
2023-09-11T01:21:00+09:00,0.7,��쐼,1.8,�쓌,22.3,98.3,0,0,0,7
2023-09-11T01:22:00+09:00,0.7,��,1.8,�쓌,22.3,98.3,0,0,0,7
2023-09-11T01:23:00+09:00,0.7,��,1.8,�쓌,22.3,98.3,0,0,0,7
2023-09-11T01:24:00+09:00,0.7,��,1.8,�쓌,22.3,98.3,0,0,0,7
2023-09-11T01:25:00+09:00,0.7,��,1.8,�쓌,22.3,98.4,0,0,0,7
2023-09-11T01:26:00+09:00,0.5,��,1.2,��,22.3,98.3,0,0,0,7
2023-09-11T01:27:00+09:00,0.5,��,1.1,��,22.3,98.4,0,0,0,7
2023-09-11T01:28:00+09:00,0.4,��쓌,1.1,��,22.3,98.4,0,0,0,7
2023-09-11T01:29:00+09:00,0.4,��쓌,1.1,��,22.5,98.5,0,0,0,7
2023-09-11T01:30:00+09:00,0.4,��쓌,1.1,��,22.5,98.6,0,0,0,7
2023-09-11T01:31:00+09:00,0.5,�쓌,1.1,��,22.5,98.5,0,0,0,7
2023-09-11T01:32:00+09:00,0.5,�쓌,1.1,��,22.6,98.5,0,0,0,7
2023-09-11T01:33:00+09:00,0.4,�쓌,1.1,���쓌,22.5,98.5,0,0,0,7
2023-09-11T01:34:00+09:00,0.4,���쓌,1.2,���k��,22.6,98.5,0,0,0,7
2023-09-11T01:35:00+09:00,0.5,���쓌,1.2,���k��,22.6,98.5,0,0,0,7
2023-09-11T01:36:00+09:00,0.6,��,1.2,���k��,22.6,98.4,0,0,0,7
2023-09-11T01:37:00+09:00,0.6,��,1.2,���k��,22.5,98.4,0,0,0,7
2023-09-11T01:38:00+09:00,0.6,���k��,1.2,���k��,22.4,98.3,0,0,0,7
2023-09-11T01:39:00+09:00,0.8,���k��,1.6,�k��,22.4,98.3,0,0,0,7
2023-09-11T01:40:00+09:00,0.9,�k��,1.8,�k��,22.3,98.3,0,0,0,7
2023-09-11T01:41:00+09:00,1,�k�k��,1.9,�k��,22.4,98.3,0,0,0,7
2023-09-11T01:42:00+09:00,1.1,�k,2.4,���k��,22.3,98.3,0,0,0,7
2023-09-11T01:43:00+09:00,1.1,�k�k��,2.4,���k��,22.3,98.3,0,0,0,7
2023-09-11T01:44:00+09:00,1.2,�k�k��,2.4,���k��,22.3,98.3,0,0,0,7
2023-09-11T01:45:00+09:00,1.2,�k��,2.4,���k��,22.3,98.3,0,0,0,7
2023-09-11T01:46:00+09:00,1.2,���k��,2.4,���k��,22.3,98.2,0,0,0,7
2023-09-11T01:47:00+09:00,1.3,���k��,2.4,���k��,22.3,98.3,0,0,0,7
2023-09-11T01:48:00+09:00,1.3,���k��,2.4,���k��,22.3,98.3,0,0,0,7
2023-09-11T01:49:00+09:00,1.1,��,2.4,���k��,22.3,98.3,0,0,0,7
2023-09-11T01:50:00+09:00,1,��,2.4,���k��,22.3,98.3,0,0,0,7
2023-09-11T01:51:00+09:00,0.9,��,2.4,���k��,22.4,98.3,0,0,0,7
2023-09-11T01:52:00+09:00,0.7,��,1.9,���k��,22.3,98.3,0,0,0,7
2023-09-11T01:53:00+09:00,0.6,�쐼,1.9,���k��,22.3,98.3,0,0,0,7
2023-09-11T01:54:00+09:00,0.6,��쐼,1.7,��,22.4,98.3,0,0,0,7
2023-09-11T01:55:00+09:00,0.5,��쓌,1.3,��,22.5,98.4,0,0,0,7
2023-09-11T01:56:00+09:00,0.5,�쓌,1.2,��,22.5,98.4,0,0,0,7
2023-09-11T01:57:00+09:00,0.5,���쓌,1.4,���쓌,22.5,98.3,0,0,0,7
2023-09-11T01:58:00+09:00,0.5,���쓌,1.4,���쓌,22.5,98.3,0,0,0,7
2023-09-11T01:59:00+09:00,0.6,���쓌,1.4,���쓌,22.5,98.4,0,0,0,7
2023-09-11T02:00:00+09:00,0.6,���쓌,1.4,���쓌,22.6,98.4,0,0,0,7
2023-09-11T02:01:00+09:00,0.6,���쓌,1.4,���쓌,22.6,98.4,0,0,0,7
2023-09-11T02:02:00+09:00,0.6,���쓌,1.8,�쓌,22.6,98.3,0,0,0,7
2023-09-11T02:03:00+09:00,0.7,���쓌,1.8,�쓌,22.5,98.3,0,0,0,7
2023-09-11T02:04:00+09:00,0.8,���쓌,2.1,��쓌,22.5,98.2,0,0,0,7
2023-09-11T02:05:00+09:00,1,���쓌,4.1,��,22.5,98.3,0,0,0,7
2023-09-11T02:06:00+09:00,1.4,�쓌,6.6,��,22.4,98.2,0,0,0,7
2023-09-11T02:07:00+09:00,1.9,�쓌,7.3,�쐼,22.4,98.2,0,0,0,7
2023-09-11T02:08:00+09:00,2.4,��쓌,8,�쐼,22.4,98.2,2.5,2.5,2.5,9.5
2023-09-11T02:09:00+09:00,3,��쓌,10.3,��,22.3,98.1,4.5,4.5,4.5,11.5
2023-09-11T02:10:00+09:00,3.6,��,10.3,��,22.4,98.2,5.5,5.5,5.5,12.5
2023-09-11T02:11:00+09:00,4.1,��쐼,10.3,��,22.6,98.3,5.5,5.5,5.5,12.5
2023-09-11T02:12:00+09:00,4.5,��쐼,10.3,��,22.6,98.3,6,6,6,13
2023-09-11T02:13:00+09:00,4.7,�쐼,10.3,��,22.7,98.2,6,6,6,13
2023-09-11T02:14:00+09:00,4.8,�쐼,10.3,��,22.7,98.2,6,6,6,13
2023-09-11T02:15:00+09:00,4.9,�쐼,10.3,��,22.7,98,6.5,6.5,6.5,13.5
2023-09-11T02:16:00+09:00,4.7,�쐼,10.3,��,23.1,97.9,6.5,6.5,6.5,13.5
2023-09-11T02:17:00+09:00,4.5,�쐼,10.3,��,23.4,97.9,6.5,6.5,6.5,13.5
2023-09-11T02:18:00+09:00,4.3,�쐼,10.3,��,23.4,97.2,4,6.5,6.5,13.5
2023-09-11T02:19:00+09:00,4,��쐼,9.1,��,23.3,95.8,2,6.5,6.5,13.5
2023-09-11T02:20:00+09:00,3.8,��쐼,6.7,���쐼,23,95,1,6.5,6.5,13.5
2023-09-11T02:21:00+09:00,3.6,��,6.3,���쐼,22.8,95,1,6.5,6.5,13.5
2023-09-11T02:22:00+09:00,3.4,��,5.9,���쐼,22.6,95.3,1.5,7.5,7.5,14.5
2023-09-11T02:23:00+09:00,3.2,��쓌,5.5,�쓌,22.6,95.7,2.5,8.5,8.5,15.5
2023-09-11T02:24:00+09:00,3.1,��쓌,5.5,�쓌,22.5,96.1,3,9,9,16
2023-09-11T02:25:00+09:00,2.9,�쓌,5.5,�쓌,22.5,96.5,2.5,9,9,16
2023-09-11T02:26:00+09:00,2.8,�쓌,5.5,�쓌,22.5,96.8,3,9.5,9.5,16.5
2023-09-11T02:27:00+09:00,2.8,�쓌,5.5,�쓌,22.5,97,3,9.5,9.5,16.5
2023-09-11T02:28:00+09:00,2.7,���쓌,5.5,�쓌,22.5,97.3,3,9.5,9.5,16.5
2023-09-11T02:29:00+09:00,2.5,���쓌,5.5,�쓌,22.5,97.5,3,9.5,9.5,16.5
2023-09-11T02:30:00+09:00,2.2,���쓌,4.4,��쓌,22.5,97.6,3,9.5,9.5,16.5
2023-09-11T02:31:00+09:00,2,���쓌,3.8,���쓌,22.4,97.7,3,9.5,9.5,16.5
2023-09-11T02:32:00+09:00,1.9,���쓌,3.8,���쓌,22.5,97.8,2,9.5,9.5,16.5
2023-09-11T02:33:00+09:00,1.8,���쓌,3.8,���쓌,22.5,97.8,1,9.5,9.5,16.5
2023-09-11T02:34:00+09:00,1.9,���쓌,3.8,���쓌,22.5,97.8,0.5,9.5,9.5,16.5
2023-09-11T02:35:00+09:00,1.8,���쓌,3.8,���쓌,22.5,97.9,0.5,9.5,9.5,16.5
2023-09-11T02:36:00+09:00,1.7,���쓌,3.8,���쓌,22.4,97.9,0,9.5,9.5,16.5
2023-09-11T02:37:00+09:00,1.6,���쓌,3.3,���쓌,22.4,97.9,0,9.5,9.5,16.5
2023-09-11T02:38:00+09:00,1.6,�쓌,2.8,���쓌,22.4,97.9,0,9.5,9.5,16.5
2023-09-11T02:39:00+09:00,1.5,�쓌,2.8,���쓌,22.4,97.9,0,9.5,9.5,16.5
2023-09-11T02:40:00+09:00,1.5,�쓌,2.8,���쓌,22.4,98,0,9.5,9.5,16.5
2023-09-11T02:41:00+09:00,1.5,�쓌,2.8,���쓌,22.4,98,0,9.5,9.5,16.5
2023-09-11T02:42:00+09:00,1.5,�쓌,2.8,���쓌,22.4,98,0,9.5,9.5,16.5
2023-09-11T02:43:00+09:00,1.4,�쓌,2.8,���쓌,22.4,98,0,9.5,9.5,16.5
2023-09-11T02:44:00+09:00,1.4,�쓌,2.8,���쓌,22.3,98,0,9.5,9.5,16.5
2023-09-11T02:45:00+09:00,1.3,�쓌,2.2,�쓌,22.4,98,0,9.5,9.5,16.5
2023-09-11T02:46:00+09:00,1.4,�쓌,2.3,�쓌,22.3,98.1,0,9.5,9.5,16.5
2023-09-11T02:47:00+09:00,1.4,�쓌,2.3,�쓌,22.3,98.1,0,9.5,9.5,16.5
2023-09-11T02:48:00+09:00,1.3,�쓌,2.3,�쓌,22.3,98.1,0,9.5,9.5,16.5
2023-09-11T02:49:00+09:00,1.3,�쓌,2.3,�쓌,22.3,98.1,0,9.5,9.5,16.5
2023-09-11T02:50:00+09:00,1.2,�쓌,2.3,�쓌,22.4,98.2,0,9.5,9.5,16.5
2023-09-11T02:51:00+09:00,1.1,�쓌,2.3,�쓌,22.4,98.3,0,9.5,9.5,16.5
2023-09-11T02:52:00+09:00,1,���쓌,2.3,�쓌,22.4,98.2,0,9.5,9.5,16.5
2023-09-11T02:53:00+09:00,1,���쓌,2.3,�쓌,22.4,98.2,0,9.5,9.5,16.5
2023-09-11T02:54:00+09:00,0.9,��,2.3,�쓌,22.4,98.2,0,9.5,9.5,16.5
2023-09-11T02:55:00+09:00,0.7,��,2.3,�쓌,22.3,98.2,0,9.5,9.5,16.5
2023-09-11T02:56:00+09:00,0.6,���k��,2.3,�쓌,22.3,98.2,0,9.5,9.5,16.5
2023-09-11T02:57:00+09:00,0.4,���k��,1.4,�쓌,22.3,98.2,0,9.5,9.5,16.5
2023-09-11T02:58:00+09:00,0.3,�k��,1,�k,22.3,98.3,0,9.5,9.5,16.5
2023-09-11T02:59:00+09:00,0.3,�k��,1,�k,22.3,98.3,0,9.5,9.5,16.5
2023-09-11T03:00:00+09:00,0.4,�k�k��,1,�k,22.3,98.3,0,9.5,9.5,16.5
2023-09-11T03:01:00+09:00,0.4,�k,1,�k,22.3,98.3,0,9.5,9.5,16.5
2023-09-11T03:02:00+09:00,0.4,�k�k��,1,���k��,22.3,98.3,0,9.5,9.5,16.5
2023-09-11T03:03:00+09:00,0.4,�k��,1,���k��,22.4,98.3,0,9.5,9.5,16.5
2023-09-11T03:04:00+09:00,0.4,���k��,1,���k��,22.3,98.3,0,9.5,9.5,16.5
2023-09-11T03:05:00+09:00,0.4,��,1,���k��,22.3,98.3,0,9.5,9.5,16.5
2023-09-11T03:06:00+09:00,0.4,��,1,���k��,22.2,98.3,0,9.5,9.5,16.5
2023-09-11T03:07:00+09:00,0.4,��,1,���k��,22.2,98.3,0,9.5,9.5,16.5
2023-09-11T03:08:00+09:00,0.5,��,1.3,�쐼,22.2,98.3,0,7,9.5,16.5
2023-09-11T03:09:00+09:00,0.6,���쐼,1.3,�쐼,22.2,98.3,0,5,9.5,16.5
2023-09-11T03:10:00+09:00,0.6,���쐼,1.3,�쐼,22.2,98.3,0,4,9.5,16.5
2023-09-11T03:11:00+09:00,0.6,�쐼,1.3,�쐼,22.2,98.3,0,4,9.5,16.5
2023-09-11T03:12:00+09:00,0.7,�쐼,1.3,�쐼,22.2,98.3,0,3.5,9.5,16.5
2023-09-11T03:13:00+09:00,0.7,�쐼,1.3,�쐼,22.2,98.3,0,3.5,9.5,16.5
2023-09-11T03:14:00+09:00,0.8,�쐼,1.3,�쐼,22.2,98.4,0,3.5,9.5,16.5
2023-09-11T03:15:00+09:00,0.8,�쐼,1.3,�쐼,22.1,98.4,0,3,9.5,16.5
2023-09-11T03:16:00+09:00,0.8,��쐼,1.3,�쐼,22.1,98.3,0,3,9.5,16.5
2023-09-11T03:17:00+09:00,0.8,��쐼,1.3,�쐼,22.2,98.3,0,3,9.5,16.5
2023-09-11T03:18:00+09:00,0.8,��쐼,1.3,�쐼,22.1,98.4,0,3,9.5,16.5
2023-09-11T03:19:00+09:00,0.8,��쐼,1.2,�쐼,22.1,98.4,0,3,9.5,16.5
2023-09-11T03:20:00+09:00,0.7,��쐼,1.2,�쐼,22.2,98.4,0,3,9.5,16.5
2023-09-11T03:21:00+09:00,0.6,�쐼,1.2,�쐼,22.2,98.4,0,3,9.5,16.5
2023-09-11T03:22:00+09:00,0.6,�쐼,1.2,�쐼,22.1,98.4,0,2,9.5,16.5
2023-09-11T03:23:00+09:00,0.5,�쐼,1.2,�쐼,22.1,98.4,0,1,9.5,16.5
2023-09-11T03:24:00+09:00,0.5,�쐼,1.2,�쐼,22.1,98.4,0,0.5,9.5,16.5
2023-09-11T03:25:00+09:00,0.4,�쐼,1.1,��쐼,22.1,98.4,0,0.5,9.5,16.5
2023-09-11T03:26:00+09:00,0.3,�쐼,1,��쐼,22.1,98.4,0,0,9.5,16.5
2023-09-11T03:27:00+09:00,0.3,�쐼,1,��쐼,22.2,98.4,0,0,9.5,16.5
2023-09-11T03:28:00+09:00,0.2,�É�,0.7,��,22.2,98.5,0,0,9.5,16.5
2023-09-11T03:29:00+09:00,0.1,�É�,0.6,���쐼,22.2,98.5,0,0,9.5,16.5
2023-09-11T03:30:00+09:00,0.2,�É�,0.6,���쐼,22.1,98.4,0,0,9.5,16.5
2023-09-11T03:31:00+09:00,0.2,�É�,0.6,���쐼,22.1,98.4,0,0,9.5,16.5
2023-09-11T03:32:00+09:00,0.2,�É�,0.6,���쐼,22.1,98.4,0,0,9.5,16.5
2023-09-11T03:33:00+09:00,0.2,�É�,0.6,���쐼,22.1,98.4,0,0,9.5,16.5
2023-09-11T03:34:00+09:00,0.2,�É�,0.6,���쐼,22.1,98.5,0,0,9.5,16.5
2023-09-11T03:35:00+09:00,0.2,�É�,0.6,���쐼,22.1,98.5,0,0,9.5,16.5
2023-09-11T03:36:00+09:00,0.3,���쐼,0.6,���쐼,22.1,98.5,0,0,9.5,16.5
2023-09-11T03:37:00+09:00,0.3,���쐼,0.6,���쐼,22.1,98.5,0,0,9.5,16.5
2023-09-11T03:38:00+09:00,0.4,���쐼,0.7,���쐼,22.1,98.5,0,0,9.5,16.5
2023-09-11T03:39:00+09:00,0.4,���쐼,0.7,���쐼,22.1,98.5,0,0,9.5,16.5
2023-09-11T03:40:00+09:00,0.4,���쐼,1,�쐼,22.1,98.5,0,0,9.5,16.5
2023-09-11T03:41:00+09:00,0.5,���쐼,1.2,���쐼,22,98.5,0,0,9.5,16.5
2023-09-11T03:42:00+09:00,0.6,���쐼,1.4,���쐼,22,98.4,0,0,9.5,16.5
2023-09-11T03:43:00+09:00,0.6,���쐼,1.4,���쐼,22,98.4,0,0,9.5,16.5
2023-09-11T03:44:00+09:00,0.7,���쐼,1.5,���쐼,22,98.5,0,0,9.5,16.5
2023-09-11T03:45:00+09:00,0.8,���쐼,1.5,���쐼,22,98.5,0,0,9.5,16.5
2023-09-11T03:46:00+09:00,0.9,���쐼,1.5,���쐼,22,98.5,0,0,9.5,16.5
2023-09-11T03:47:00+09:00,1,���쐼,1.5,���쐼,22,98.5,0,0,9.5,16.5
2023-09-11T03:48:00+09:00,1,���쐼,1.5,���쐼,22,98.5,0,0,9.5,16.5
2023-09-11T03:49:00+09:00,1,���쐼,1.5,���쐼,22,98.6,0,0,9.5,16.5
2023-09-11T03:50:00+09:00,1.1,���쐼,1.5,���쐼,22,98.5,0,0,9.5,16.5
2023-09-11T03:51:00+09:00,1,���쐼,1.5,���쐼,22,98.5,0,0,9.5,16.5
2023-09-11T03:52:00+09:00,1,���쐼,1.5,���쐼,22,98.5,0,0,9.5,16.5
2023-09-11T03:53:00+09:00,1,���쐼,1.5,���쐼,22,98.5,0,0,9.5,16.5
2023-09-11T03:54:00+09:00,1,���쐼,1.5,���쐼,22,98.5,0,0,9.5,16.5
2023-09-11T03:55:00+09:00,0.9,���쐼,1.4,�쐼,22.1,98.6,0,0,9.5,16.5
2023-09-11T03:56:00+09:00,0.9,���쐼,1.4,�쐼,22.1,98.6,0,0,9.5,16.5
2023-09-11T03:57:00+09:00,0.8,���쐼,1.3,���쐼,22,98.6,0,0,9.5,16.5
2023-09-11T03:58:00+09:00,0.8,���쐼,1.3,���쐼,22.1,98.5,0,0,9.5,16.5
2023-09-11T03:59:00+09:00,0.8,���쐼,1.3,���쐼,22,98.6,0,0,9.5,16.5
2023-09-11T04:00:00+09:00,0.7,���쐼,1.3,���쐼,22,98.6,0,0,9.5,16.5
2023-09-11T04:01:00+09:00,0.7,�쐼,1.3,���쐼,22,98.6,0,0,9.5,16.5
2023-09-11T04:02:00+09:00,0.6,�쐼,1.2,��,22,98.6,0,0,9.5,16.5
2023-09-11T04:03:00+09:00,0.5,��쐼,1.1,��,22,98.6,0,0,9.5,16.5
2023-09-11T04:04:00+09:00,0.4,��쐼,0.8,���쐼,22.1,98.6,0,0,9.5,16.5
2023-09-11T04:05:00+09:00,0.4,��쐼,0.8,���쐼,22.1,98.6,0,0,9.5,16.5
2023-09-11T04:06:00+09:00,0.3,�쐼,0.8,���쐼,22.1,98.6,0,0,9.5,16.5
2023-09-11T04:07:00+09:00,0.3,�쐼,0.8,���쐼,22.2,98.6,0,0,9.5,16.5
2023-09-11T04:08:00+09:00,0.2,�É�,0.6,�쓌,22.2,98.6,0,0,9.5,16.5
2023-09-11T04:09:00+09:00,0.2,�É�,0.6,�쓌,22.1,98.6,0,0,9.5,16.5
2023-09-11T04:10:00+09:00,0.3,�k�k��,0.7,�k��,22.1,98.6,0,0,9.5,16.5
2023-09-11T04:11:00+09:00,0.3,�k��,0.7,�k��,22.1,98.5,0,0,9.5,16.5
2023-09-11T04:12:00+09:00,0.3,�k��,0.7,�k��,22,98.5,0,0,9.5,16.5
2023-09-11T04:13:00+09:00,0.4,�k��,0.8,���k��,22,98.5,0,0,9.5,16.5
2023-09-11T04:14:00+09:00,0.4,�k��,0.9,��,22,98.5,0,0,9.5,16.5
2023-09-11T04:15:00+09:00,0.5,���k��,0.9,��,22,98.5,0,0,9.5,16.5
2023-09-11T04:16:00+09:00,0.6,���k��,1.1,��,22,98.6,0,0,9.5,16.5
2023-09-11T04:17:00+09:00,0.7,���k��,1.2,���쐼,22,98.5,0,0,9.5,16.5
2023-09-11T04:18:00+09:00,0.8,���k��,1.5,���쐼,22,98.5,0,0,9.5,16.5
2023-09-11T04:19:00+09:00,0.8,���k��,1.5,���쐼,21.9,98.5,0,0,9.5,16.5
2023-09-11T04:20:00+09:00,0.9,��,1.5,���쐼,21.9,98.5,0,0,9.5,16.5
2023-09-11T04:21:00+09:00,1,��,1.5,���쐼,21.9,98.5,0,0,9.5,16.5
2023-09-11T04:22:00+09:00,1,��,1.5,���쐼,21.9,98.5,0,0,9.5,16.5
2023-09-11T04:23:00+09:00,1.1,���쐼,1.5,���쐼,21.9,98.5,0,0,9.5,16.5
2023-09-11T04:24:00+09:00,1.1,���쐼,1.5,���쐼,21.9,98.5,0,0,9.5,16.5
2023-09-11T04:25:00+09:00,1.1,���쐼,1.5,���쐼,21.9,98.5,0,0,9.5,16.5
2023-09-11T04:26:00+09:00,1.1,���쐼,1.5,���쐼,21.9,98.5,0,0,9.5,16.5
2023-09-11T04:27:00+09:00,1,�쐼,1.5,���쐼,21.9,98.6,0,0,9.5,16.5
2023-09-11T04:28:00+09:00,1,�쐼,1.5,���쐼,21.9,98.6,0,0,9.5,16.5
2023-09-11T04:29:00+09:00,0.9,�쐼,1.5,���쐼,21.9,98.6,0,0,9.5,16.5
2023-09-11T04:30:00+09:00,0.9,�쐼,1.5,���쐼,21.9,98.5,0,0,9.5,16.5
2023-09-11T04:31:00+09:00,0.8,�쐼,1.5,���쐼,21.9,98.6,0,0,9.5,16.5
2023-09-11T04:32:00+09:00,0.8,�쐼,1.4,�쐼,21.9,98.6,0,0,9.5,16.5
2023-09-11T04:33:00+09:00,0.7,���쐼,1.2,�쐼,21.9,98.6,0,0,9.5,16.5
2023-09-11T04:34:00+09:00,0.6,���쐼,1.2,�쐼,22,98.6,0,0,9.5,16.5
2023-09-11T04:35:00+09:00,0.6,���쐼,1,���쐼,22,98.6,0,0,9.5,16.5
2023-09-11T04:36:00+09:00,0.5,���쐼,1,���쐼,21.9,98.6,0,0,9.5,16.5
2023-09-11T04:37:00+09:00,0.5,���쐼,1,���쐼,21.9,98.6,0,0,9.5,16.5
2023-09-11T04:38:00+09:00,0.5,���쐼,1,���쐼,22,98.6,0,0,9.5,16.5
2023-09-11T04:39:00+09:00,0.5,���쐼,0.9,���쐼,22,98.6,0,0,9.5,16.5
2023-09-11T04:40:00+09:00,0.5,��,1.3,���k��,22,98.6,0,0,9.5,16.5
2023-09-11T04:41:00+09:00,0.5,��,1.3,���k��,21.9,98.5,0,0,9.5,16.5
2023-09-11T04:42:00+09:00,0.5,��,1.3,���k��,21.9,98.5,0,0,9.5,16.5
2023-09-11T04:43:00+09:00,0.6,��,1.3,���k��,21.9,98.5,0,0,9.5,16.5
2023-09-11T04:44:00+09:00,0.6,��,1.3,���k��,21.9,98.6,0,0,9.5,16.5
2023-09-11T04:45:00+09:00,0.7,��,1.3,���k��,21.9,98.6,0,0,9.5,16.5
2023-09-11T04:46:00+09:00,0.8,��,1.3,���k��,21.9,98.6,0,0,9.5,16.5
2023-09-11T04:47:00+09:00,0.9,��,1.4,��,21.9,98.6,0,0,9.5,16.5
2023-09-11T04:48:00+09:00,1,��,1.8,��,21.9,98.6,0,0,9.5,16.5
2023-09-11T04:49:00+09:00,1.1,��,1.8,��,21.9,98.6,0,0,9.5,16.5
2023-09-11T04:50:00+09:00,1.1,��,1.8,��,21.8,98.6,0,0,9.5,16.5
2023-09-11T04:51:00+09:00,1.1,��,1.8,��,21.8,98.6,0,0,9.5,16.5
2023-09-11T04:52:00+09:00,1.1,��,1.8,��,21.8,98.6,0,0,9.5,16.5
2023-09-11T04:53:00+09:00,1.1,��,1.8,��,21.8,98.6,0,0,9.5,16.5
2023-09-11T04:54:00+09:00,1.1,��,1.8,��,21.8,98.6,0,0,9.5,16.5
2023-09-11T04:55:00+09:00,1.1,��,1.8,��,21.7,98.6,0,0,9.5,16.5
2023-09-11T04:56:00+09:00,1.1,��,1.8,��,21.7,98.6,0,0,9.5,16.5
2023-09-11T04:57:00+09:00,1.1,��,1.8,��,21.7,98.6,0,0,9.5,16.5
2023-09-11T04:58:00+09:00,1,��,1.6,��,21.7,98.6,0,0,9.5,16.5
2023-09-11T04:59:00+09:00,1,��,1.4,��,21.7,98.6,0,0,9.5,16.5
2023-09-11T05:00:00+09:00,1,���쐼,1.4,��,21.8,98.6,0,0,9.5,16.5
2023-09-11T05:01:00+09:00,0.9,���쐼,1.3,��,21.8,98.6,0,0,9.5,16.5
2023-09-11T05:02:00+09:00,0.8,���쐼,1.3,��,21.8,98.6,0,0,9.5,16.5
2023-09-11T05:03:00+09:00,0.7,���쐼,1.3,��,21.9,98.7,0,0,9.5,16.5
2023-09-11T05:04:00+09:00,0.7,���쐼,1.3,��,21.9,98.7,0,0,9.5,16.5
2023-09-11T05:05:00+09:00,0.7,���쐼,1.3,��,21.8,98.7,0,0,9.5,16.5
2023-09-11T05:06:00+09:00,0.7,���쐼,1.3,��,21.8,98.6,0,0,9.5,16.5
2023-09-11T05:07:00+09:00,0.7,��,1.8,���쐼,21.8,98.6,0,0,9.5,16.5
2023-09-11T05:08:00+09:00,0.8,���쐼,1.8,���쐼,21.9,98.7,0,0,9.5,16.5
2023-09-11T05:09:00+09:00,0.8,���쐼,1.8,���쐼,21.8,98.7,0,0,9.5,16.5
2023-09-11T05:10:00+09:00,0.8,��,1.8,���쐼,21.8,98.7,0,0,9.5,16.5
2023-09-11T05:11:00+09:00,0.9,��,1.8,���쐼,21.8,98.7,0,0,9.5,16.5
2023-09-11T05:12:00+09:00,1,��,1.8,���쐼,21.8,98.6,0,0,9.5,16.5
2023-09-11T05:13:00+09:00,1,��,1.8,���쐼,21.8,98.7,0,0,9.5,16.5
2023-09-11T05:14:00+09:00,1.1,���쐼,1.8,���쐼,21.8,98.6,0,0,9.5,16.5
2023-09-11T05:15:00+09:00,1.1,���쐼,1.8,���쐼,21.8,98.6,0,0,9.5,16.5
2023-09-11T05:16:00+09:00,1,���쐼,1.8,���쐼,21.8,98.6,0,0,9.5,16.5
2023-09-11T05:17:00+09:00,1,���쐼,1.7,��,21.8,98.6,0,0,9.5,16.5
2023-09-11T05:18:00+09:00,1,���쐼,1.6,��,21.8,98.7,0,0,9.5,16.5
2023-09-11T05:19:00+09:00,1,�쐼,1.6,��,21.8,98.7,0,0,9.5,16.5
2023-09-11T05:20:00+09:00,1,�쐼,1.6,��,21.8,98.7,0,0,9.5,16.5
2023-09-11T05:21:00+09:00,0.9,�쐼,1.6,��,21.8,98.7,0,0,9.5,16.5
2023-09-11T05:22:00+09:00,0.9,��쐼,1.4,�쐼,21.8,98.7,0,0,9.5,16.5
2023-09-11T05:23:00+09:00,0.9,��쐼,1.4,�쐼,21.8,98.7,0,0,9.5,16.5
2023-09-11T05:24:00+09:00,0.9,��쐼,1.4,�쐼,21.9,98.7,0,0,9.5,16.5
2023-09-11T05:25:00+09:00,0.8,��쐼,1.4,�쐼,21.9,98.7,0,0,9.5,16.5
2023-09-11T05:26:00+09:00,0.8,��쐼,1.4,�쐼,21.9,98.7,0,0,9.5,16.5
2023-09-11T05:27:00+09:00,0.8,��쐼,1.4,�쐼,21.9,98.7,0,0,9.5,16.5
2023-09-11T05:28:00+09:00,0.8,��쐼,1.6,�쐼,21.9,98.7,0,0,9.5,16.5
2023-09-11T05:29:00+09:00,0.8,��쐼,1.6,�쐼,21.9,98.7,0,0,9.5,16.5
2023-09-11T05:30:00+09:00,0.8,��쐼,1.6,�쐼,21.9,98.7,0,0,9.5,16.5
2023-09-11T05:31:00+09:00,0.8,�쐼,1.6,�쐼,21.9,98.7,0,0,9.5,16.5
2023-09-11T05:32:00+09:00,0.8,�쐼,1.6,�쐼,21.9,98.7,0,0,9.5,16.5
2023-09-11T05:33:00+09:00,0.8,�쐼,1.6,�쐼,21.9,98.7,0,0,9.5,16.5
2023-09-11T05:34:00+09:00,0.8,���쐼,1.6,�쐼,21.8,98.6,0,0,9.5,16.5
2023-09-11T05:35:00+09:00,0.8,���쐼,1.6,�쐼,21.9,98.7,0,0,9.5,16.5
2023-09-11T05:36:00+09:00,0.8,���쐼,1.6,�쐼,21.9,98.7,0,0,9.5,16.5
2023-09-11T05:37:00+09:00,0.8,���쐼,1.6,�쐼,21.9,98.7,0,0,9.5,16.5
2023-09-11T05:38:00+09:00,0.8,���쐼,1.9,���쐼,21.8,98.6,0,0,9.5,16.5
2023-09-11T05:39:00+09:00,0.8,���쐼,1.9,���쐼,21.8,98.6,0,0,9.5,16.5
2023-09-11T05:40:00+09:00,0.8,���쐼,1.9,���쐼,21.8,98.6,0,0,9.5,16.5
2023-09-11T05:41:00+09:00,0.9,���쐼,1.9,���쐼,21.7,98.6,0,0,9.5,16.5
2023-09-11T05:42:00+09:00,0.9,���쐼,1.9,���쐼,21.7,98.6,0,0,9.5,16.5
2023-09-11T05:43:00+09:00,0.9,���쐼,1.9,���쐼,21.7,98.6,0,0,9.5,16.5
2023-09-11T05:44:00+09:00,1,���쐼,1.9,���쐼,21.7,98.6,0,0,9.5,16.5
2023-09-11T05:45:00+09:00,1,���쐼,1.9,���쐼,21.7,98.6,0,0,9.5,16.5
2023-09-11T05:46:00+09:00,1.1,�쐼,1.9,���쐼,21.7,98.6,0,0,9.5,16.5
2023-09-11T05:47:00+09:00,1.1,�쐼,1.9,���쐼,21.8,98.7,0,0,9.5,16.5
2023-09-11T05:48:00+09:00,1,�쐼,1.6,���쐼,21.7,98.7,0,0,9.5,16.5
2023-09-11T05:49:00+09:00,1,�쐼,1.6,���쐼,21.7,98.7,0,0,9.5,16.5
2023-09-11T05:50:00+09:00,0.9,�쐼,1.6,���쐼,21.7,98.7,0,0,9.5,16.5
2023-09-11T05:51:00+09:00,0.9,�쐼,1.6,���쐼,21.8,98.7,0,0,9.5,16.5
2023-09-11T05:52:00+09:00,0.9,�쐼,1.5,���쐼,21.8,98.7,0,0,9.5,16.5
2023-09-11T05:53:00+09:00,0.8,��쐼,1.3,���쐼,21.8,98.7,0,0,9.5,16.5
2023-09-11T05:54:00+09:00,0.7,��쐼,1.1,��쐼,21.8,98.7,0,0,9.5,16.5
2023-09-11T05:55:00+09:00,0.7,��쐼,1.1,��쐼,21.9,98.7,0,0,9.5,16.5
2023-09-11T05:56:00+09:00,0.6,��쐼,1,��쓌,21.9,98.7,0,0,9.5,16.5
2023-09-11T05:57:00+09:00,0.6,��쐼,1,��쓌,21.9,98.7,0,0,9.5,16.5
2023-09-11T05:58:00+09:00,0.5,��쐼,1,��쓌,21.8,98.7,0,0,9.5,16.5
2023-09-11T05:59:00+09:00,0.5,��쐼,1,��쓌,21.7,98.7,0,0,9.5,16.5
2023-09-11T06:00:00+09:00,0.5,��쐼,1,��쓌,21.7,98.6,0,0,9.5,16.5
2023-09-11T06:01:00+09:00,0.4,�쐼,1,��쓌,21.7,98.6,0,0,9.5,16.5
2023-09-11T06:02:00+09:00,0.3,���쐼,1,��쓌,21.6,98.6,0,0,9.5,16.5
2023-09-11T06:03:00+09:00,0.2,�É�,0.7,���k��,21.7,98.6,0,0,9.5,16.5
2023-09-11T06:04:00+09:00,0.2,�É�,0.7,���k��,21.7,98.7,0,0,9.5,16.5
2023-09-11T06:05:00+09:00,0.2,�É�,0.7,���k��,21.7,98.7,0,0,9.5,16.5
2023-09-11T06:06:00+09:00,0.2,�É�,0.7,���k��,21.7,98.7,0,0,9.5,16.5
2023-09-11T06:07:00+09:00,0.3,��,0.7,���k��,21.7,98.7,0,0,9.5,16.5
2023-09-11T06:08:00+09:00,0.3,��,0.7,���k��,21.7,98.7,0,0,9.5,16.5
2023-09-11T06:09:00+09:00,0.2,�É�,0.7,��,21.7,98.7,0,0,9.5,16.5
2023-09-11T06:10:00+09:00,0.2,�É�,0.7,��,21.8,98.7,0,0,9.5,16.5
2023-09-11T06:11:00+09:00,0.2,�É�,0.7,��,21.8,98.7,0,0,9.5,16.5
2023-09-11T06:12:00+09:00,0.3,�쐼,0.7,��,21.8,98.8,0,0,9.5,16.5
2023-09-11T06:13:00+09:00,0.3,�쐼,0.7,��,21.8,98.7,0,0,9.5,16.5
2023-09-11T06:14:00+09:00,0.4,��쐼,0.7,��,21.8,98.7,0,0,9.5,16.5